Home > Weather > Cocoa Beach > Past weeks

Flag for USA Weather for the Past 2 Weeks in Cocoa Beach, Florida, USA

Now
80 °F

Sunny.


Feels Like: 80 °F
Forecast: 65 / 80 °F
Wind: 22 mph from West

Location: Cocoa / Patrick Air Force Base

Current Time: May 5, 2016 at 4:18:16 PM

Latest Report: May 5, 2016 at 3:58 PM


Visibility: 10 mi

Pressure: 29.71 "Hg

Humidity: 41%

Dew Point: 54 °F

Location of Cocoa BeachLocation

Historic Weather in Cocoa Beach — Graph

°F

Cocoa Beach Temperature Yesterday

Maximum temperature yesterday: 79 °F (at 12:58 AM)
Minimum temperature yesterday: 68 °F (at 3:59 PM)
Average temperature yesterday: 72 °F

High & Low Weather Summary for the Past Weeks

 TemperatureHumidityPressure
High91 °F (May 3, 2:58 PM)96% (May 4, 10:58 PM)30.13 "Hg (May 4, 10:58 PM)
Low64 °F (May 5, 6:58 AM)40% (May 5, 1:58 PM)29.65 "Hg (May 4, 8:58 PM)
Average76 °F73%29.97 "Hg
* Reported Apr 20 2:58 PM — May 5 2:58 PM, Cocoa Beach, Weather by CustomWeather, © 2016

Note: Actual official high and low records may vary slightly from our data, if they occured in-between our weather recording intervals... More about our weather records

Advertising

Cocoa Beach Weather History for the Previous 24 Hours

Scroll right to see more
 ConditionsComfort  
Time TempWeatherWind HumidityBarometerVisibility
2:58 PM
Thu, May 5
81 °FSunny.21 mph40%29.73 "Hg10 mi
1:58 PM80 °FSunny.18 mph40%29.75 "Hg10 mi
12:58 PM79 °FSunny.18 mph43%29.77 "Hg10 mi
11:58 AM77 °FSunny.15 mph42%29.79 "Hg10 mi
10:58 AM75 °FSunny.18 mph48%29.79 "Hg10 mi
9:58 AM72 °FSunny.16 mph51%29.79 "Hg10 mi
8:58 AM69 °FSunny.15 mph58%29.79 "Hg10 mi
7:59 AM66 °FSunny.14 mph66%29.77 "Hg10 mi
6:58 AM64 °FClear.16 mph75%29.76 "Hg10 mi
5:58 AM64 °FClear.17 mph75%29.75 "Hg10 mi
4:58 AM65 °FClear.17 mph79%29.73 "Hg10 mi
3:58 AM67 °FClear.18 mph83%29.70 "Hg10 mi
2:58 AM67 °FClear.17 mph91%29.68 "Hg10 mi
1:58 AM68 °FClear.16 mph92%29.67 "Hg10 mi
12:58 AM68 °FClear.17 mph93%29.67 "Hg10 mi
11:58 PM
Wed, May 4
69 °FClear.14 mph96%29.66 "Hg10 mi
11:03 PM70 °FLight rain. Passing clouds.13 mph94%29.66 "Hg10 mi
10:58 PM69 °FLight rain. Passing clouds.10 mph96%29.67 "Hg10 mi
10:04 PM70 °FPassing clouds.9 mph94%29.66 "Hg10 mi
8:58 PM70 °FLight rain. Partly sunny.12 mph94%29.65 "Hg10 mi
7:58 PM70 °FLight rain. Broken clouds.9 mph91%29.66 "Hg7 mi
6:58 PM72 °FThundershowers. Partly sunny.9 mph86%29.68 "Hg5 mi
5:58 PM75 °FSunny.18 mph75%29.65 "Hg10 mi
4:58 PM73 °FSunny.18 mph90%29.69 "Hg10 mi
Weather by CustomWeather, © 2016

See weather overviewHow to use our weather pages